User: anonymous   Login
Location: Unspecified
(0.0000°N, 0.0000°E)
Time: 11:46:35
(UTC+00:00)
Language:

GSAT 7 - Orbit

View from above orbital plane
View from above orbital plane
View from above satellite
View from above satellite

Ground track
Ground track

The orbit data is extracted from the following two-line orbital elements,

1 39234U 13044B   16148.11336777 -.00000079  00000-0  00000+0 0  9994
2 39234   0.0271 272.0094 0008356  18.0534  69.8588  1.00271766 10072
Epoch (UTC): 27 May 2016 02:43:14
Eccentricity: 0.0008356
inclination: 0.0271°
perigee height: 35751 km
apogee height: 35821 km
right ascension of ascending node: 272.0094°
argument of perigee: 18.0534°
revolutions per day: 1.00271766
mean anomaly at epoch: 69.8588°
orbit number at epoch: 1007

The dashed part of the orbit path shows where the satellite is in the earth's shadow,  

DLR